Probability
1 0 0 0 0 0 0 0 0 0 0 0 0 0 0 0 0 0 0 0 0 0 0 0 0 0 0 0 0 0 0 0 0 0 0 0 0 0 0 0 0 0 0 0
1 0 0 0 0 0 0 0 0 0 0 0 0 0 0 0 0 0 0 0 0 0 0 0 0 0 0 0 0 0 0 0 0 0 0 0 0 0 0 0 0 0 0 0
1 0 0 0 0 0 0 0 0 0 0 0 0 0 0 0 0 0 0 0 0 0 0 0 0 0 0 0 0 0 0 0 0 0 0 0 0 0 0 0 0 0 0 0
0 0 0 0 0 0 0 0 0 0 0 0 0 0 0 0 0 0 0 0 0 0 0 0 0 0 0 0 0 0 0 0 0 0 0 0 0 0 0 0 0 0 0 0
0 0 0 0 0 0 0 0 0 0 0 0 0 0 0 0 0 0 0 0 0 0 0 0 0 0 0 0 0 0 0 0 0 0 0 0 0 0 0 0 0 0 0 0
0 0 0 0 0 0 0 0 0 0 0 0 0 0 0 0 0 0 0 0 0 0 0 0 0 0 0 0 0 0 0 0 0 0 0 0 0 0 0 0 0 0 0 0
0 0 0 0 0 0 0 0 0 0 0 0 0 0 0 0 0 0 0 0 0 0 0 0 0 0 0 0 0 0 0 0 0 0 0 0 0 0 0 0 1 2 1 1
0 0 0 0 0 0 0 0 0 0 0 0 0 0 0 0 0 0 0 0 0 0 0 0 0 0 0 0 0 0 0 0 0 0 0 0 0 0 0 1 2 3 3 3
0 0 0 0 0 0 0 0 0 0 0 0 0 0 0 0 0 0 0 0 0 0 0 0 0 0 0 0 0 0 0 0 0 0 0 0 0 0 0 1 3 4 4 4
0 0 0 0 0 0 0 0 0 0 0 0 0 0 0 0 0 0 0 0 0 0 0 0 0 0 0 0 0 0 0 0 0 0 0 0 0 0 1 2 3 3 4 4
0 0 0 0 0 0 0 0 0 0 0 0 0 0 0 0 0 0 0 0 0 0 0 0 0 0 0 0 0 0 0 0 0 0 0 0 0 0 1 2 3 3 3 3
0 0 0 0 0 0 0 0 0 0 0 0 0 0 0 0 0 0 0 0 0 0 0 0 0 0 0 0 0 0 0 0 0 0 0 0 0 0 1 2 3 3 3 3
0 0 0 0 0 0 0 0 0 0 0 0 0 0 0 0 0 0 0 0 0 0 0 0 0 0 0 0 0 0 0 0 0 0 0 0 0 0 0 1 1 2 3 3
0 0 0 0 0 0 0 0 0 0 0 0 0 0 0 0 0 0 0 0 0 0 0 0 0 0 0 0 0 0 0 0 0 0 0 0 0 0 0 0 0 1 2 3
0 0 0 0 0 0 0 0 0 0 0 0 0 0 0 0 0 0 0 0 0 0 0 0 0 0 0 0 0 0 0 0 0 0 0 0 0 0 0 0 0 1 2 2
0 0 0 0 0 0 0 0 0 0 0 0 0 0 0 0 0 0 0 0 0 0 0 0 0 0 0 0 0 0 0 0 0 0 0 0 0 0 0 0 1 2 2 1
0 0 0 0 0 0 0 0 0 0 0 0 0 0 0 0 0 0 0 0 0 0 0 0 0 0 0 0 0 0 0 0 0 0 0 0 0 0 0 0 1 1 1 0
0 0 0 0 0 0 0 0 0 0 0 0 0 0 0 0 0 0 0 0 0 0 0 0 0 0 0 0 0 0 0 0 0 0 0 0 0 0 0 0 0 0 0 0
0 0 0 0 0 0 0 0 0 0 0 0 0 0 0 0 0 0 0 0 0 0 0 0 0 0 0 0 0 0 0 0 0 0 0 0 0 0 0 0 0 0 0 0
0 0 0 0 0 0 0 0 0 0 0 0 0 0 0 0 0 0 0 0 0 0 0 0 0 0 0 0 0 0 0 0 0 0 0 0 0 0 0 0 0 0 0 0
0 0 0 0 0 0 0 0 0 0 0 0 0 0 0 0 0 0 0 0 0 0 0 0 0 0 0 0 0 0 0 0 0 0 0 0 0 0 0 0 0 0 0 0
0 0 0 0 0 0 0 0 0 0 0 0 0 0 0 0 0 0 0 0 0 0 0 0 0 0 0 0 0 0 0 0 0 0 0 0 0 0 0 0 0 0 0 0
0 0 0 0 0 0 0 0 0 0 0 0 0 0 0 0 0 0 0 0 0 0 0 0 0 0 0 0 0 0 0 0 0 0 0 0 0 0 0 0 0 0 0 0
0 0 0 0 0 0 0 0 0 0 0 0 0 0 0 0 0 0 0 0 0 0 0 0 0 0 0 0 0 0 0 0 0 0 0 0 0 0 0 0 0 0 0 0
0 0 0 0 0 0 0 0 0 0 0 0 0 0 0 0 0 0 0 0 0 0 0 0 0 0 0 0 0 0 0 0 0 0 0 0 0 0 0 0 0 0 0 0
0 0 0 0 0 0 0 0 0 0 0 0 0 0 0 0 0 0 0 0 0 0 0 0 0 0 0 0 0 0 0 0 0 0 0 0 0 0 0 0 0 0 0 0
Wind_Speed
9 10 14 17 18 10 8 10 12 9 4 7 14 19 19 17 16 18 17 16 16 16 15 13 12 11 11 12 13 14 15 15 13 11 11 11 12 12 11 11 14 15 15 15
8 17 16 12 13 12 11 12 12 8 5 7 14 21 21 19 19 18 18 17 16 16 14 13 11 10 10 12 13 14 15 15 15 13 12 10 11 10 12 11 13 16 16 16
18 6 12 13 14 16 16 16 13 9 5 7 11 18 16 15 15 16 17 17 16 15 15 13 12 11 10 11 12 12 15 15 16 16 12 10 9 9 10 13 13 17 18 18
16 10 9 15 16 16 16 14 12 10 8 7 5 14 14 12 14 14 15 14 14 14 13 13 12 12 11 11 11 12 14 15 15 15 14 16 14 14 16 13 12 15 17 18
13 13 14 16 15 16 8 6 9 10 10 11 10 13 15 8 14 13 11 11 11 11 12 12 12 12 12 10 10 11 12 13 14 15 17 17 17 15 12 13 15 15 15 17
7 6 11 12 9 12 6 5 4 7 7 13 15 15 16 10 13 10 9 9 10 9 10 11 11 10 10 9 8 9 11 12 12 15 17 19 20 18 17 16 14 13 12 13
10 8 6 6 9 10 11 8 5 7 9 12 9 13 17 10 11 11 11 11 10 9 10 9 10 10 10 10 9 9 10 11 12 14 16 18 20 20 20 18 16 14 12 12
16 13 15 12 13 12 17 14 10 9 8 7 7 15 14 7 10 11 11 11 10 10 9 9 10 10 10 10 9 9 10 11 11 13 14 16 18 15 14 17 15 15 13 13
16 11 10 12 9 13 12 14 10 5 3 7 10 12 13 8 11 11 10 9 9 9 9 10 10 10 10 10 10 10 11 11 11 12 13 14 16 16 16 16 16 14 13 11
10 9 8 8 7 11 9 9 7 9 8 11 12 14 13 8 9 9 8 7 8 9 9 10 10 11 11 10 10 10 10 11 11 11 11 10 13 15 15 14 15 15 15 14
8 8 7 9 15 17 13 12 10 8 7 9 11 12 7 9 7 7 7 7 9 10 10 11 11 11 11 10 10 10 9 10 10 10 10 12 12 13 14 14 15 14 14 14
11 6 7 10 6 10 15 15 15 10 10 8 9 13 2 4 5 5 8 9 10 10 11 11 11 11 10 10 10 9 9 9 9 9 10 11 11 12 12 13 14 13 13 13
13 9 7 6 6 7 13 16 17 12 8 10 12 14 3 4 5 7 9 10 10 10 11 11 11 11 11 10 10 10 9 9 9 9 9 10 10 10 12 12 12 12 12 12
11 8 11 15 9 11 14 18 19 16 11 13 19 22 18 13 12 12 11 11 12 11 11 11 11 11 11 11 11 11 10 10 9 8 9 9 10 10 10 10 10 10 10 11
10 8 8 8 6 10 13 18 21 22 21 17 20 24 26 19 16 15 14 13 13 13 13 13 12 12 12 12 11 11 11 9 8 9 9 9 9 8 8 8 8 8 8 8
10 6 6 6 9 10 12 17 19 22 23 23 23 27 25 20 17 16 14 12 13 14 14 13 12 12 12 12 12 11 11 9 8 9 9 8 7 7 7 7 6 6 6 7
10 8 8 8 6 5 15 19 21 21 21 21 24 27 20 18 17 16 13 13 14 14 13 13 13 12 12 12 11 12 11 9 8 9 8 7 6 6 6 5 5 6 6 5
11 9 5 5 6 15 12 8 17 21 23 23 22 22 19 18 16 13 12 13 14 12 12 13 12 13 12 11 11 10 9 8 8 8 8 6 6 6 4 4 5 5 4 4
11 10 6 6 10 12 10 8 12 16 20 20 22 22 19 13 13 14 10 9 10 11 11 11 11 12 12 11 9 9 8 8 7 7 7 6 6 5 4 5 4 3 3 3
8 8 7 8 10 14 11 8 9 9 15 11 15 18 16 10 11 12 5 6 9 10 10 10 11 11 11 10 8 8 8 8 8 8 7 6 5 5 5 5 4 2 2 2
10 9 12 12 12 12 7 6 10 12 10 5 9 12 11 11 12 9 7 8 9 10 10 10 10 10 10 9 7 8 9 9 8 6 5 5 4 4 4 3 2 2 3 3
14 12 12 10 12 15 8 11 13 8 1 3 5 6 7 9 9 9 9 10 10 11 10 10 9 9 9 7 7 9 10 8 5 5 5 4 3 3 2 3 2 3 4 4
13 13 9 12 12 4 9 10 6 3 4 5 5 5 6 8 10 10 10 10 10 10 9 8 8 10 9 7 6 9 9 6 4 4 4 3 2 2 2 3 3 3 3 4
7 4 6 8 11 7 8 6 5 4 5 5 5 5 6 9 10 10 9 9 9 9 9 8 9 10 10 8 7 8 8 5 4 4 4 2 2 2 1 1 2 3 3 4
8 8 8 10 8 5 9 9 8 6 4 5 6 6 7 9 10 10 9 9 9 9 8 8 8 10 11 9 8 7 6 4 4 4 3 3 2 2 2 2 1 2 1 2
8 10 11 11 8 8 8 5 5 6 7 7 7 8 6 7 9 9 9 9 8 9 8 8 9 9 10 9 9 8 5 4 4 4 3 3 3 2 2 3 2 3 3 5
Wind_Direction
178 199 209 208 212 229 226 229 239 246 250 257 259 266 269 268 264 264 265 265 265 265 268 268 263 254 248 242 236 232 228 223 217 213 213 215 219 218 219 219 219 217 214 209
188 220 218 210 209 216 224 235 246 260 253 261 274 273 271 265 260 259 262 264 265 269 269 267 265 258 248 245 240 235 231 227 219 217 216 220 221 222 221 218 220 218 216 213
208 211 200 200 205 214 225 233 240 251 287 262 285 276 259 255 252 254 255 259 263 266 269 272 271 266 258 250 244 238 236 231 225 221 220 221 223 226 221 220 218 217 216 215
221 211 190 199 209 209 229 227 235 243 256 260 262 284 271 262 259 253 252 253 258 262 266 271 272 271 266 260 254 247 242 237 230 222 220 218 219 221 222 221 220 217 215 216
208 195 195 206 209 205 220 196 214 229 244 262 243 261 271 251 258 253 250 252 257 264 271 273 272 273 274 271 262 254 249 243 235 226 223 223 226 229 230 225 224 220 215 215
204 191 205 210 201 197 168 164 206 228 239 251 238 240 268 239 247 256 255 259 265 269 274 275 276 277 278 278 271 261 256 251 240 232 228 226 228 230 231 228 225 221 218 216
204 206 199 177 170 180 182 182 200 211 219 241 220 231 255 247 241 251 263 268 272 276 280 284 284 287 286 284 278 268 262 259 249 239 234 231 231 232 231 231 228 224 220 217
193 206 197 193 193 186 195 200 210 221 229 240 205 236 255 252 246 252 258 265 271 276 281 285 288 290 289 288 282 274 268 263 256 246 241 237 234 233 234 232 230 227 224 221
194 204 181 194 191 182 188 213 228 246 265 263 240 251 267 244 246 248 252 258 267 279 286 291 295 296 294 292 288 280 273 268 261 253 247 242 237 234 235 234 231 231 229 224
184 186 175 171 175 203 206 182 184 208 222 242 249 249 250 228 230 236 246 259 275 286 291 295 297 297 295 293 290 284 274 268 264 259 252 248 242 238 237 235 232 230 229 224
187 176 162 174 196 192 185 194 202 206 221 232 253 253 237 237 229 238 254 265 278 285 290 294 299 302 301 298 294 288 282 277 272 265 259 252 248 243 239 236 235 233 231 228
187 182 196 209 217 221 208 205 200 208 219 229 252 261 201 226 248 256 274 285 289 293 298 303 306 305 303 300 297 291 286 281 276 272 266 259 254 247 241 238 236 232 230 227
170 175 174 192 207 204 217 217 216 224 230 227 240 260 235 240 264 273 282 291 296 299 301 301 303 304 303 302 299 294 289 285 282 277 269 264 258 251 247 243 240 234 229 226
174 190 204 211 205 187 205 214 215 215 226 236 239 256 262 267 276 283 288 292 297 300 300 302 304 305 304 301 298 295 292 290 286 279 271 266 260 254 251 249 244 237 232 225
185 204 214 233 221 204 215 217 215 220 228 238 250 257 263 268 275 282 286 290 293 296 300 301 302 302 302 302 300 296 292 291 286 278 272 268 268 262 256 250 245 239 232 226
192 194 187 215 221 223 234 228 221 226 232 241 254 262 265 271 274 276 280 284 288 290 294 296 298 300 300 300 300 297 292 289 283 275 271 273 273 267 258 251 246 238 231 223
182 173 183 213 207 224 241 227 222 226 229 234 244 254 267 271 270 274 280 281 282 285 290 295 297 297 297 298 297 293 291 289 279 273 273 272 269 266 263 257 242 233 227 220
178 175 182 176 173 229 240 220 220 228 235 233 241 253 262 269 278 280 274 273 274 280 287 293 299 301 300 299 296 293 293 287 278 273 271 270 263 261 261 252 243 236 223 210
187 176 179 190 222 251 258 222 207 219 240 235 240 251 260 270 282 272 266 270 276 284 288 289 291 293 294 294 295 296 290 286 280 273 270 264 256 251 241 237 237 235 218 206
192 190 187 200 219 235 240 204 196 212 251 233 231 243 253 259 266 274 288 284 285 286 288 291 292 292 290 295 299 287 281 281 275 271 268 263 253 243 236 230 223 204 191 187
180 194 206 214 230 249 240 180 162 203 240 216 222 235 241 242 253 287 302 295 294 295 296 297 295 291 290 297 293 281 278 274 277 277 270 260 246 237 233 221 202 174 161 149
186 192 203 205 223 240 184 173 198 223 185 201 215 225 241 256 273 283 289 293 297 299 302 302 298 293 296 297 287 282 279 282 286 276 264 255 241 228 210 191 184 166 158 149
204 200 197 205 223 235 176 200 210 194 213 223 231 235 245 263 273 282 289 293 296 296 296 296 291 292 296 295 283 279 283 290 285 274 262 255 239 223 197 184 181 171 164 162
223 211 207 228 239 231 221 226 223 223 232 242 246 252 255 266 278 284 286 288 291 294 297 299 295 293 295 298 289 280 287 286 270 260 255 241 217 210 187 184 184 180 179 172
204 191 212 239 250 250 237 228 232 239 251 261 264 259 258 266 272 277 282 285 288 292 296 295 291 291 293 298 295 292 290 280 267 256 243 232 216 192 177 166 175 175 178 175
201 203 209 229 221 224 242 229 237 251 263 269 272 271 264 260 270 277 280 285 288 289 293 291 289 288 291 295 294 295 290 270 254 246 232 219 204 185 177 160 125 95 121 122